| time (UTC) | temp C | wind direction | speed KPH | gust KPH | rain 1hr cm | rain 24hr cm | rain mn cm | humidity % | barometer mb |
| 20260902100013 | 8 | 164 | 8.0 | 0.0 | 0.00 | 0.00 | 0.03 | 88 | 1004.7 |
| 20260902095523 | 8 | 166 | 6.4 | 0.0 | 0.00 | 0.00 | 0.03 | 88 | 1004.8 |
| 20260902095031 | 8 | 188 | 6.4 | 0.0 | 0.00 | 0.00 | 0.03 | 88 | 1004.9 |
| 20260902094542 | 8 | 222 | 6.4 | 0.0 | 0.00 | 0.00 | 0.03 | 88 | 1004.9 |
| 20260902094102 | 8 | 222 | 4.8 | 0.0 | 0.00 | 0.00 | 0.03 | 87 | 1005.0 |
| 20260902093515 | 8 | 222 | 4.8 | 0.0 | 0.00 | 0.00 | 0.03 | 87 | 1005.1 |
| 20260902093029 | 8 | 222 | 4.8 | 0.0 | 0.00 | 0.00 | 0.03 | 86 | 1005.1 |
| 20260902092541 | 9 | 222 | 4.8 | 0.0 | 0.00 | 0.00 | 0.03 | 85 | 1005.1 |
| 20260902092052 | 9 | 222 | 6.4 | 0.0 | 0.00 | 0.00 | 0.03 | 85 | 1005.1 |
| 20260902091512 | 10 | 222 | 6.4 | 0.0 | 0.00 | 0.00 | 0.03 | 84 | 1005.0 |
| 20260902091027 | 10 | 222 | 6.4 | 0.0 | 0.00 | 0.00 | 0.03 | 84 | 1005.0 |
| 20260902090542 | 10 | 222 | 8.0 | 0.0 | 0.00 | 0.00 | 0.03 | 84 | 1005.0 |
| 20260902090004 | 10 | 222 | 8.0 | 0.0 | 0.00 | 0.00 | 0.03 | 84 | 1005.1 |
| 20260902085516 | 10 | 242 | 4.8 | 0.0 | 0.00 | 0.00 | 0.03 | 83 | 1005.1 |
| 20260902085028 | 11 | 306 | 4.8 | 0.0 | 0.00 | 0.00 | 0.03 | 84 | 1005.2 |
| 20260902084552 | 11 | 306 | 4.8 | 0.0 | 0.00 | 0.00 | 0.03 | 84 | 1005.3 |
| 20260902084001 | 11 | 311 | 3.2 | 0.0 | 0.00 | 0.00 | 0.03 | 83 | 1005.3 |
| 20260902083526 | 11 | 179 | 3.2 | 0.0 | 0.00 | 0.00 | 0.03 | 84 | 1005.2 |
| 20260902083040 | 11 | 179 | 3.2 | 0.0 | 0.00 | 0.00 | 0.03 | 84 | 1005.4 |
| 20260902082600 | 11 | 182 | 4.8 | 0.0 | 0.00 | 0.00 | 0.03 | 84 | 1005.4 |
| 20260902082003 | 11 | 148 | 6.4 | 0.0 | 0.00 | 0.00 | 0.03 | 84 | 1005.4 |
| 20260902081514 | 11 | 159 | 8.0 | 0.0 | 0.00 | 0.00 | 0.03 | 85 | 1005.2 |
| 20260902081029 | 10 | 204 | 6.4 | 0.0 | 0.00 | 0.00 | 0.03 | 85 | 1005.4 |
| 20260902080541 | 10 | 217 | 6.4 | 0.0 | 0.00 | 0.00 | 0.03 | 85 | 1005.4 |
| 20260902080057 | 10 | 184 | 6.4 | 0.0 | 0.00 | 0.00 | 0.03 | 84 | 1005.3 |
| 20260902075602 | 10 | 183 | 8.0 | 0.0 | 0.00 | 0.00 | 0.03 | 83 | 1005.2 |
| 20260902075007 | 10 | 184 | 9.7 | 0.0 | 0.00 | 0.00 | 0.03 | 83 | 1005.0 |
| 20260902074520 | 10 | 187 | 9.7 | 0.0 | 0.00 | 0.00 | 0.03 | 83 | 1004.8 |
| 20260902074033 | 10 | 200 | 8.0 | 0.0 | 0.00 | 0.00 | 0.03 | 82 | 1005.0 |
| 20260902073541 | 11 | 201 | 8.0 | 0.0 | 0.00 | 0.00 | 0.03 | 81 | 1004.9 |
| 20260902073107 | 11 | 205 | 8.0 | 0.0 | 0.00 | 0.00 | 0.03 | 80 | 1004.9 |
| 20260902072506 | 11 | 232 | 8.0 | 0.0 | 0.00 | 0.00 | 0.03 | 79 | 1005.0 |
| 20260902072035 | 11 | 234 | 9.7 | 0.0 | 0.00 | 0.00 | 0.03 | 79 | 1004.9 |
| 20260902071548 | 11 | 229 | 9.7 | 0.0 | 0.00 | 0.00 | 0.03 | 79 | 1005.0 |
| 20260902071056 | 11 | 209 | 8.0 | 0.0 | 0.00 | 0.00 | 0.03 | 78 | 1005.0 |
| 20260902070605 | 11 | 169 | 8.0 | 0.0 | 0.00 | 0.00 | 0.03 | 77 | 1005.1 |
| 20260902070009 | 12 | 167 | 8.0 | 0.0 | 0.00 | 0.00 | 0.03 | 76 | 1004.9 |
| 20260902065531 | 12 | 127 | 6.4 | 0.0 | 0.00 | 0.00 | 0.03 | 76 | 1004.8 |
| 20260902065051 | 12 | 243 | 8.0 | 0.0 | 0.00 | 0.00 | 0.03 | 74 | 1004.8 |
| 20260902064613 | 12 | 240 | 9.7 | 0.0 | 0.00 | 0.00 | 0.03 | 72 | 1004.7 |
| 20260902064017 | 12 | 246 | 9.7 | 0.0 | 0.00 | 0.00 | 0.00 | 72 | 1004.7 |
| 20260902063536 | 12 | 246 | 8.0 | 0.0 | 0.00 | 0.00 | 0.00 | 73 | 1004.6 |
| 20260902063046 | 13 | 248 | 9.7 | 0.0 | 0.00 | 0.00 | 0.00 | 73 | 1004.4 |
| 20260902062559 | 13 | 247 | 9.7 | 0.0 | 0.00 | 0.00 | 0.00 | 74 | 1004.9 |
| 20260902062010 | 13 | 224 | 8.0 | 0.0 | 0.00 | 0.00 | 0.00 | 72 | 1005.1 |
| 20260902061522 | 13 | 170 | 6.4 | 0.0 | 0.00 | 0.00 | 0.00 | 72 | 1004.9 |
| 20260902061042 | 13 | 148 | 9.7 | 0.0 | 0.00 | 0.00 | 0.00 | 73 | 1004.9 |
| 20260902060556 | 13 | 144 | 11.3 | 0.0 | 0.00 | 0.00 | 0.00 | 73 | 1005.2 |
| 20260902060002 | 13 | 124 | 9.7 | 0.0 | 0.00 | 0.00 | 0.03 | 72 | 1005.3 |
| 20260902055512 | 13 | 127 | 14.5 | 0.0 | 0.00 | 0.00 | 0.03 | 72 | 1005.2 |
| 20260902055034 | 13 | 146 | 20.9 | 0.0 | 0.00 | 0.00 | 0.03 | 70 | 1004.9 |
| 20260902054558 | 13 | 227 | 29.0 | 0.0 | 0.00 | 0.00 | 0.03 | 66 | 1005.4 |
| 20260902054005 | 14 | 240 | 22.5 | 0.0 | 0.00 | 0.00 | 0.03 | 63 | 1005.0 |
| 20260902053520 | 15 | 254 | 11.3 | 0.0 | 0.00 | 0.00 | 0.03 | 61 | 1004.9 |
| 20260902053044 | 15 | 184 | 12.9 | 0.0 | 0.00 | 0.00 | 0.03 | 57 | 1005.0 |
| 20260902052505 | 14 | 127 | 14.5 | 0.0 | 0.00 | 0.00 | 0.03 | 64 | 1005.0 |
| 20260902052028 | 14 | 177 | 19.3 | 0.0 | 0.00 | 0.00 | 0.00 | 63 | 1005.4 |
| 20260902051538 | 15 | 173 | 29.0 | 0.0 | 0.00 | 0.00 | 0.00 | 59 | 1005.5 |
| 20260902051049 | 16 | 124 | 33.8 | 0.0 | 0.00 | 0.00 | 0.00 | 50 | 1005.4 |
| 20260902050514 | 16 | 175 | 35.4 | 0.0 | 0.00 | 0.00 | 0.00 | 50 | 1005.1 |
| 20260902050038 | 16 | 167 | 33.8 | 0.0 | 0.00 | 0.00 | 0.00 | 51 | 1005.1 |
| 20260902045546 | 16 | 167 | 35.4 | 0.0 | 0.00 | 0.00 | 0.00 | 50 | 1005.2 |
| 20260902045100 | 16 | 130 | 33.8 | 0.0 | 0.00 | 0.00 | 0.00 | 48 | 1005.2 |
| 20260902044512 | 17 | 111 | 32.2 | 0.0 | 0.00 | 0.00 | 0.00 | 46 | 1005.4 |
| 20260902044035 | 17 | 146 | 30.6 | 0.0 | 0.00 | 0.00 | 0.00 | 45 | 1005.1 |
| 20260902043547 | 17 | 175 | 30.6 | 0.0 | 0.00 | 0.00 | 0.00 | 45 | 1004.8 |
| 20260902043058 | 17 | 184 | 25.7 | 0.0 | 0.00 | 0.00 | 0.00 | 47 | 1004.2 |
| 20260902042603 | 17 | 182 | 14.5 | 0.0 | 0.00 | 0.00 | 0.00 | 56 | 1003.9 |
| 20260902042020 | 16 | 155 | 12.9 | 0.0 | 0.00 | 0.00 | 0.00 | 56 | 1003.3 |
| 20260902041531 | 16 | 178 | 14.5 | 0.0 | 0.00 | 0.00 | 0.00 | 56 | 1003.3 |
| 20260902041053 | 16 | 188 | 12.9 | 0.0 | 0.00 | 0.00 | 0.00 | 57 | 1003.3 |
| 20260902040505 | 16 | 172 | 12.9 | 0.0 | 0.00 | 0.00 | 0.00 | 58 | 1003.4 |
| 20260902040020 | 15 | 174 | 11.3 | 0.0 | 0.00 | 0.00 | 0.00 | 58 | 1003.4 |
| 20260902035536 | 16 | 184 | 11.3 | 0.0 | 0.00 | 0.00 | 0.00 | 58 | 1003.4 |
| 20260902035015 | 16 | 198 | 12.9 | 0.0 | 0.00 | 0.00 | 0.00 | 57 | 1003.3 |
| 20260902034530 | 16 | 176 | 14.5 | 0.0 | 0.00 | 0.00 | 0.00 | 57 | 1003.2 |
| 20260902034044 | 16 | 169 | 12.9 | 0.0 | 0.00 | 0.00 | 0.00 | 57 | 1003.2 |
| 20260902033555 | 16 | 172 | 11.3 | 0.0 | 0.00 | 0.00 | 0.00 | 56 | 1003.0 |
| 20260902033010 | 16 | 183 | 11.3 | 0.0 | 0.00 | 0.00 | 0.00 | 55 | 1003.0 |
| 20260902032538 | 16 | 186 | 9.7 | 0.0 | 0.00 | 0.00 | 0.00 | 55 | 1002.9 |
| 20260902032048 | 16 | 192 | 8.0 | 0.0 | 0.00 | 0.00 | 0.00 | 54 | 1002.9 |
| 20260902031507 | 16 | 194 | 9.7 | 0.0 | 0.00 | 0.00 | 0.00 | 54 | 1003.0 |
| 20260902031028 | 16 | 198 | 9.7 | 0.0 | 0.00 | 0.00 | 0.00 | 54 | 1003.0 |
| 20260902030539 | 16 | 190 | 11.3 | 0.0 | 0.00 | 0.00 | 0.00 | 54 | 1003.0 |
| 20260902030057 | 16 | 193 | 11.3 | 0.0 | 0.00 | 0.00 | 0.00 | 53 | 1002.9 |
| 20260902025503 | 16 | 177 | 11.3 | 0.0 | 0.00 | 0.00 | 0.00 | 52 | 1003.1 |
| 20260902025018 | 17 | 161 | 11.3 | 0.0 | 0.00 | 0.00 | 0.00 | 51 | 1003.0 |
| 20260902024536 | 17 | 186 | 11.3 | 0.0 | 0.00 | 0.00 | 0.00 | 50 | 1002.9 |
| 20260902024038 | 17 | 168 | 12.9 | 0.0 | 0.00 | 0.00 | 0.00 | 50 | 1002.7 |
| 20260902023108 | 17 | 136 | 12.9 | 0.0 | 0.00 | 0.00 | 0.00 | 50 | 1002.6 |
| 20260902022601 | 17 | 167 | 11.3 | 0.0 | 0.00 | 0.00 | 0.00 | 50 | 1002.7 |
| 20260902022046 | 17 | 157 | 9.7 | 0.0 | 0.00 | 0.00 | 0.00 | 51 | 1002.7 |
| 20260902021544 | 17 | 144 | 9.7 | 0.0 | 0.00 | 0.00 | 0.00 | 51 | 1002.6 |
| 20260902021042 | 17 | 157 | 12.9 | 0.0 | 0.00 | 0.00 | 0.00 | 51 | 1002.7 |
| 20260902020552 | 18 | 145 | 14.5 | 0.0 | 0.00 | 0.00 | 0.00 | 50 | 1002.7 |
| 20260902020003 | 18 | 149 | 12.9 | 0.0 | 0.00 | 0.00 | 0.00 | 49 | 1002.6 |
| 20260902015600 | 18 | 156 | 14.5 | 0.0 | 0.00 | 0.00 | 0.00 | 49 | 1002.6 |
| 20260902015108 | 19 | 129 | 14.5 | 0.0 | 0.00 | 0.00 | 0.00 | 49 | 1002.6 |
| 20260902014553 | 19 | 173 | 14.5 | 0.0 | 0.00 | 0.00 | 0.00 | 48 | 1002.7 |
| 20260902014003 | 20 | 182 | 16.1 | 0.0 | 0.00 | 0.00 | 0.00 | 48 | 1002.5 |
| 20260902013505 | 20 | 157 | 17.7 | 0.0 | 0.00 | 0.00 | 0.00 | 47 | 1002.6 |
| 20260902013018 | 20 | 150 | 19.3 | 0.0 | 0.00 | 0.00 | 0.00 | 46 | 1002.6 |
| 20260902012521 | 20 | 155 | 22.5 | 0.0 | 0.00 | 0.00 | 0.00 | 47 | 1002.6 |
| 20260902012023 | 20 | 123 | 24.1 | 0.0 | 0.00 | 0.00 | 0.00 | 47 | 1002.8 |
| 20260902011534 | 20 | 128 | 24.1 | 0.0 | 0.00 | 0.00 | 0.00 | 47 | 1002.8 |
| 20260902011037 | 21 | 157 | 22.5 | 0.0 | 0.00 | 0.00 | 0.00 | 45 | 1002.6 |
| 20260902010543 | 21 | 127 | 22.5 | 0.0 | 0.00 | 0.00 | 0.00 | 42 | 1002.6 |
| 20260902010055 | 21 | 192 | 22.5 | 0.0 | 0.00 | 0.00 | 0.00 | 43 | 1002.6 |
| 20260902005608 | 21 | 169 | 22.5 | 0.0 | 0.00 | 0.00 | 0.00 | 44 | 1002.6 |
| 20260902005002 | 21 | 184 | 22.5 | 0.0 | 0.00 | 0.00 | 0.00 | 42 | 1002.5 |
| 20260902004501 | 22 | 169 | 22.5 | 0.0 | 0.00 | 0.00 | 0.00 | 43 | 1002.4 |
| 20260902004025 | 21 | 146 | 22.5 | 0.0 | 0.00 | 0.00 | 0.00 | 43 | 1002.5 |
| 20260902003538 | 21 | 126 | 24.1 | 0.0 | 0.00 | 0.00 | 0.00 | 44 | 1002.5 |
| 20260902003048 | 21 | 123 | 25.7 | 0.0 | 0.00 | 0.00 | 0.00 | 43 | 1002.5 |
| 20260902002554 | 21 | 140 | 24.1 | 0.0 | 0.00 | 0.00 | 0.00 | 44 | 1002.5 |
| 20260902002049 | 21 | 121 | 27.4 | 0.0 | 0.00 | 0.00 | 0.00 | 43 | 1002.4 |
| 20260902001604 | 22 | 154 | 25.7 | 0.0 | 0.00 | 0.00 | 0.00 | 42 | 1002.4 |
| 20260902001053 | 22 | 146 | 25.7 | 0.0 | 0.00 | 0.00 | 0.00 | 42 | 1002.5 |
| 20260902000551 | 22 | 130 | 27.4 | 0.0 | 0.00 | 0.00 | 0.00 | 41 | 1002.6 |
| 20260902000100 | 22 | 129 | 25.7 | 0.0 | 0.00 | 0.00 | 0.00 | 41 | 1002.3 |
| 20260901235505 | 22 | 141 | 25.7 | 0.0 | 0.00 | 0.00 | 0.00 | 40 | 1002.4 |
| 20260901235100 | 22 | 142 | 24.1 | 0.0 | 0.00 | 0.00 | 0.00 | 40 | 1002.5 |
| 20260901234504 | 22 | 127 | 20.9 | 0.0 | 0.00 | 0.00 | 0.00 | 40 | 1002.4 |
| 20260901234007 | 23 | 159 | 22.5 | 0.0 | 0.00 | 0.00 | 0.00 | 40 | 1002.3 |
| 20260901233519 | 22 | 125 | 22.5 | 0.0 | 0.00 | 0.00 | 0.00 | 40 | 1002.5 |
| 20260901233049 | 22 | 137 | 24.1 | 0.0 | 0.00 | 0.00 | 0.00 | 39 | 1002.5 |
| 20260901232523 | 22 | 138 | 24.1 | 0.0 | 0.00 | 0.00 | 0.00 | 39 | 1002.6 |
| 20260901232023 | 22 | 138 | 22.5 | 0.0 | 0.00 | 0.00 | 0.00 | 41 | 1002.7 |
| 20260901231541 | 22 | 181 | 24.1 | 0.0 | 0.00 | 0.00 | 0.00 | 40 | 1002.7 |
| 20260901231048 | 22 | 155 | 24.1 | 0.0 | 0.00 | 0.00 | 0.00 | 41 | 1002.6 |
| 20260901230559 | 22 | 120 | 24.1 | 0.0 | 0.00 | 0.00 | 0.00 | 40 | 1002.9 |
| 20260901230124 | 22 | 116 | 24.1 | 0.0 | 0.00 | 0.00 | 0.00 | 40 | 1002.9 |
| 20260901225506 | 23 | 175 | 24.1 | 0.0 | 0.00 | 0.00 | 0.00 | 38 | 1002.9 |
| 20260901225011 | 23 | 170 | 25.7 | 0.0 | 0.00 | 0.00 | 0.00 | 38 | 1002.8 |
| 20260901224603 | 23 | 149 | 24.1 | 0.0 | 0.00 | 0.00 | 0.00 | 37 | 1002.9 |
| 20260901224100 | 23 | 140 | 24.1 | 0.0 | 0.00 | 0.00 | 0.00 | 37 | 1003.2 |
| 20260901223547 | 23 | 136 | 25.7 | 0.0 | 0.00 | 0.00 | 0.00 | 36 | 1003.0 |
| 20260901223045 | 23 | 149 | 25.7 | 0.0 | 0.00 | 0.00 | 0.00 | 36 | 1003.1 |
| 20260901222540 | 23 | 184 | 24.1 | 0.0 | 0.00 | 0.00 | 0.00 | 36 | 1003.2 |
| 20260901222046 | 23 | 165 | 25.7 | 0.0 | 0.00 | 0.00 | 0.00 | 36 | 1003.3 |
| 20260901221557 | 23 | 175 | 25.7 | 0.0 | 0.00 | 0.00 | 0.00 | 37 | 1003.2 |
| 20260901221003 | 23 | 150 | 25.7 | 0.0 | 0.00 | 0.00 | 0.00 | 37 | 1003.1 |
| 20260901220516 | 23 | 98 | 27.4 | 0.0 | 0.00 | 0.00 | 0.00 | 37 | 1003.2 |
| 20260901220043 | 23 | 124 | 25.7 | 0.0 | 0.00 | 0.00 | 0.00 | 36 | 1003.2 |
| 20260901215552 | 23 | 126 | 25.7 | 0.0 | 0.00 | 0.00 | 0.00 | 36 | 1003.3 |
| 20260901215101 | 23 | 129 | 24.1 | 0.0 | 0.00 | 0.00 | 0.00 | 36 | 1003.4 |
| 20260901214517 | 23 | 163 | 22.5 | 0.0 | 0.00 | 0.00 | 0.00 | 34 | 1003.5 |
| 20260901214017 | 23 | 171 | 24.1 | 0.0 | 0.00 | 0.00 | 0.00 | 36 | 1003.7 |
| 20260901213540 | 23 | 174 | 24.1 | 0.0 | 0.00 | 0.00 | 0.00 | 35 | 1003.8 |
| 20260901213116 | 22 | 174 | 22.5 | 0.0 | 0.00 | 0.00 | 0.00 | 36 | 1003.8 |
| 20260901212558 | 22 | 200 | 20.9 | 0.0 | 0.00 | 0.00 | 0.00 | 31 | 1003.9 |
| 20260901212016 | 23 | 145 | 20.9 | 0.0 | 0.00 | 0.00 | 0.00 | 32 | 1003.9 |
| 20260901211529 | 22 | 131 | 20.9 | 0.0 | 0.00 | 0.00 | 0.00 | 35 | 1004.1 |
| 20260901211043 | 22 | 126 | 22.5 | 0.0 | 0.00 | 0.00 | 0.00 | 34 | 1004.0 |
| 20260901210541 | 22 | 106 | 22.5 | 0.0 | 0.00 | 0.00 | 0.00 | 35 | 1004.0 |
| 20260901210051 | 22 | 136 | 22.5 | 0.0 | 0.00 | 0.00 | 0.00 | 34 | 1003.9 |
| 20260901205502 | 22 | 142 | 20.9 | 0.0 | 0.00 | 0.00 | 0.00 | 34 | 1004.0 |
| 20260901205014 | 22 | 173 | 19.3 | 0.0 | 0.00 | 0.00 | 0.00 | 34 | 1004.2 |
| 20260901204525 | 22 | 187 | 20.9 | 0.0 | 0.00 | 0.00 | 0.00 | 35 | 1004.3 |
| 20260901204039 | 22 | 146 | 20.9 | 0.0 | 0.00 | 0.00 | 0.00 | 36 | 1004.2 |
| 20260901203551 | 22 | 182 | 20.9 | 0.0 | 0.00 | 0.00 | 0.00 | 36 | 1004.4 |
| 20260901203119 | 22 | 174 | 20.9 | 0.0 | 0.00 | 0.00 | 0.00 | 36 | 1004.4 |
| 20260901202606 | 22 | 134 | 20.9 | 0.0 | 0.00 | 0.00 | 0.00 | 36 | 1004.6 |
| 20260901202015 | 22 | 156 | 20.9 | 0.0 | 0.00 | 0.00 | 0.00 | 36 | 1004.7 |
| 20260901201533 | 22 | 165 | 20.9 | 0.0 | 0.00 | 0.00 | 0.00 | 37 | 1004.7 |
| 20260901201043 | 22 | 143 | 20.9 | 0.0 | 0.00 | 0.00 | 0.00 | 37 | 1004.7 |
| 20260901200552 | 21 | 174 | 22.5 | 0.0 | 0.00 | 0.00 | 0.00 | 38 | 1004.7 |
| 20260901195507 | 21 | 199 | 22.5 | 0.0 | 0.00 | 0.00 | 0.00 | 38 | 1004.9 |
| 20260901195021 | 21 | 123 | 24.1 | 0.0 | 0.00 | 0.00 | 0.00 | 38 | 1005.1 |
| 20260901194541 | 21 | 155 | 24.1 | 0.0 | 0.00 | 0.00 | 0.00 | 37 | 1005.1 |
| 20260901194046 | 21 | 146 | 24.1 | 0.0 | 0.00 | 0.00 | 0.00 | 40 | 1005.1 |
| 20260901193557 | 21 | 174 | 22.5 | 0.0 | 0.00 | 0.00 | 0.00 | 40 | 1005.3 |
| 20260901193009 | 21 | 193 | 22.5 | 0.0 | 0.00 | 0.00 | 0.00 | 40 | 1005.4 |
| 20260901192533 | 21 | 173 | 24.1 | 0.0 | 0.00 | 0.00 | 0.00 | 39 | 1005.4 |
| 20260901192047 | 21 | 157 | 22.5 | 0.0 | 0.00 | 0.00 | 0.00 | 38 | 1005.5 |
| 20260901191617 | 21 | 145 | 20.9 | 0.0 | 0.00 | 0.00 | 0.00 | 39 | 1005.6 |
| 20260901191007 | 21 | 167 | 20.9 | 0.0 | 0.00 | 0.00 | 0.00 | 38 | 1005.7 |
| 20260901190531 | 21 | 188 | 20.9 | 0.0 | 0.00 | 0.00 | 0.00 | 37 | 1005.9 |
| 20260901190039 | 21 | 150 | 19.3 | 0.0 | 0.00 | 0.00 | 0.00 | 38 | 1005.9 |
| 20260901185602 | 21 | 197 | 20.9 | 0.0 | 0.00 | 0.00 | 0.00 | 37 | 1006.1 |
| 20260901185018 | 21 | 168 | 20.9 | 0.0 | 0.00 | 0.00 | 0.00 | 37 | 1006.2 |
| 20260901184539 | 21 | 178 | 20.9 | 0.0 | 0.00 | 0.00 | 0.00 | 37 | 1006.2 |
| 20260901184050 | 21 | 180 | 22.5 | 0.0 | 0.00 | 0.00 | 0.00 | 38 | 1006.2 |
| 20260901183504 | 21 | 202 | 20.9 | 0.0 | 0.00 | 0.00 | 0.00 | 39 | 1006.3 |
| 20260901183030 | 20 | 153 | 22.5 | 0.0 | 0.00 | 0.00 | 0.00 | 39 | 1006.3 |
| 20260901182548 | 20 | 201 | 22.5 | 0.0 | 0.00 | 0.00 | 0.00 | 38 | 1006.2 |
| 20260901182009 | 20 | 178 | 20.9 | 0.0 | 0.00 | 0.00 | 0.00 | 38 | 1006.3 |
| 20260901181527 | 20 | 159 | 20.9 | 0.0 | 0.00 | 0.00 | 0.00 | 38 | 1006.2 |
| 20260901181038 | 20 | 167 | 20.9 | 0.0 | 0.00 | 0.00 | 0.00 | 39 | 1006.3 |
| 20260901180549 | 20 | 169 | 22.5 | 0.0 | 0.00 | 0.00 | 0.00 | 41 | 1006.3 |
| 20260901175515 | 19 | 205 | 20.9 | 0.0 | 0.00 | 0.00 | 0.00 | 41 | 1006.6 |
| 20260901175036 | 18 | 196 | 20.9 | 0.0 | 0.00 | 0.00 | 0.00 | 41 | 1006.7 |
| 20260901174557 | 18 | 192 | 20.9 | 0.0 | 0.00 | 0.00 | 0.00 | 42 | 1006.7 |
| 20260901174106 | 19 | 194 | 20.9 | 0.0 | 0.00 | 0.00 | 0.00 | 43 | 1006.7 |
| 20260901173515 | 19 | 182 | 20.9 | 0.0 | 0.00 | 0.00 | 0.00 | 43 | 1006.7 |
| 20260901173035 | 19 | 187 | 22.5 | 0.0 | 0.00 | 0.00 | 0.00 | 44 | 1006.7 |
| 20260901172548 | 19 | 188 | 20.9 | 0.0 | 0.00 | 0.00 | 0.00 | 44 | 1006.6 |
| 20260901172059 | 19 | 203 | 20.9 | 0.0 | 0.00 | 0.00 | 0.00 | 46 | 1006.6 |
| 20260901171506 | 18 | 189 | 20.9 | 0.0 | 0.00 | 0.00 | 0.00 | 47 | 1006.6 |
| 20260901171013 | 17 | 178 | 22.5 | 0.0 | 0.00 | 0.00 | 0.00 | 49 | 1006.6 |
| 20260901170538 | 17 | 190 | 20.9 | 0.0 | 0.00 | 0.00 | 0.00 | 50 | 1006.6 |
| 20260901170056 | 17 | 218 | 22.5 | 0.0 | 0.00 | 0.00 | 0.00 | 50 | 1006.6 |
| 20260901165502 | 17 | 207 | 24.1 | 0.0 | 0.00 | 0.00 | 0.00 | 52 | 1006.6 |
| 20260901165021 | 16 | 186 | 25.7 | 0.0 | 0.00 | 0.00 | 0.00 | 55 | 1006.6 |
| 20260901164547 | 16 | 217 | 22.5 | 0.0 | 0.00 | 0.00 | 0.00 | 55 | 1006.6 |
| 20260901164050 | 16 | 206 | 22.5 | 0.0 | 0.00 | 0.00 | 0.00 | 56 | 1006.5 |
| 20260901163559 | 16 | 133 | 22.5 | 0.0 | 0.00 | 0.00 | 0.00 | 57 | 1006.5 |
| 20260901163006 | 16 | 202 | 24.1 | 0.0 | 0.00 | 0.00 | 0.00 | 57 | 1006.4 |
| 20260901162516 | 16 | 171 | 25.7 | 0.0 | 0.00 | 0.00 | 0.00 | 59 | 1006.4 |
| 20260901162035 | 15 | 200 | 25.7 | 0.0 | 0.00 | 0.00 | 0.00 | 59 | 1006.4 |
| 20260901161551 | 15 | 188 | 24.1 | 0.0 | 0.00 | 0.00 | 0.00 | 60 | 1006.4 |
| 20260901161058 | 15 | 214 | 22.5 | 0.0 | 0.00 | 0.00 | 0.00 | 61 | 1006.4 |
| 20260901160508 | 15 | 171 | 22.5 | 0.0 | 0.00 | 0.00 | 0.00 | 62 | 1006.6 |
| 20260901160017 | 15 | 190 | 22.5 | 0.0 | 0.00 | 0.00 | 0.00 | 61 | 1006.6 |
| 20260901155541 | 15 | 173 | 22.5 | 0.0 | 0.00 | 0.00 | 0.00 | 61 | 1006.7 |
| 20260901155057 | 15 | 196 | 20.9 | 0.0 | 0.00 | 0.00 | 0.00 | 61 | 1006.8 |
| 20260901154502 | 15 | 186 | 24.1 | 0.0 | 0.00 | 0.00 | 0.00 | 61 | 1006.7 |
| 20260901154014 | 15 | 130 | 25.7 | 0.0 | 0.00 | 0.00 | 0.00 | 62 | 1006.9 |
| 20260901153524 | 15 | 142 | 24.1 | 0.0 | 0.00 | 0.00 | 0.00 | 63 | 1006.8 |
| 20260901153046 | 15 | 178 | 25.7 | 0.0 | 0.00 | 0.00 | 0.00 | 63 | 1006.9 |
| 20260901152546 | 15 | 135 | 27.4 | 0.0 | 0.00 | 0.00 | 0.00 | 63 | 1006.9 |
| 20260901152008 | 15 | 178 | 29.0 | 0.0 | 0.00 | 0.00 | 0.00 | 61 | 1006.9 |
| 20260901151524 | 15 | 151 | 29.0 | 0.0 | 0.00 | 0.00 | 0.00 | 61 | 1006.9 |
| 20260901151034 | 15 | 154 | 29.0 | 0.0 | 0.00 | 0.00 | 0.00 | 61 | 1006.9 |
| 20260901150545 | 15 | 116 | 29.0 | 0.0 | 0.00 | 0.00 | 0.00 | 60 | 1006.9 |
| 20260901150009 | 15 | 127 | 24.1 | 0.0 | 0.00 | 0.00 | 0.00 | 59 | 1006.9 |
| 20260901145530 | 15 | 157 | 20.9 | 0.0 | 0.00 | 0.00 | 0.00 | 59 | 1006.9 |
| 20260901145042 | 15 | 133 | 20.9 | 0.0 | 0.00 | 0.00 | 0.00 | 59 | 1007.0 |
| 20260901144556 | 15 | 175 | 20.9 | 0.0 | 0.00 | 0.00 | 0.00 | 59 | 1007.0 |
| 20260901144023 | 15 | 155 | 20.9 | 0.0 | 0.00 | 0.00 | 0.00 | 59 | 1006.9 |
| 20260901143532 | 15 | 188 | 19.3 | 0.0 | 0.00 | 0.00 | 0.00 | 59 | 1006.8 |
| 20260901143047 | 15 | 167 | 17.7 | 0.0 | 0.00 | 0.00 | 0.00 | 58 | 1007.0 |
| 20260901142601 | 15 | 151 | 19.3 | 0.0 | 0.00 | 0.00 | 0.00 | 59 | 1007.0 |
| 20260901142022 | 15 | 153 | 24.1 | 0.0 | 0.00 | 0.00 | 0.00 | 60 | 1006.8 |
| 20260901141529 | 15 | 163 | 22.5 | 0.0 | 0.00 | 0.00 | 0.00 | 60 | 1006.8 |
| 20260901141037 | 15 | 178 | 19.3 | 0.0 | 0.00 | 0.00 | 0.00 | 59 | 1006.8 |
| 20260901140550 | 15 | 167 | 17.7 | 0.0 | 0.00 | 0.00 | 0.00 | 56 | 1006.8 |
| 20260901140014 | 15 | 160 | 20.9 | 0.0 | 0.00 | 0.00 | 0.00 | 57 | 1006.7 |
| 20260901135524 | 15 | 193 | 24.1 | 0.0 | 0.00 | 0.00 | 0.00 | 58 | 1006.6 |
| 20260901135033 | 15 | 198 | 24.1 | 0.0 | 0.00 | 0.00 | 0.00 | 59 | 1006.7 |
| 20260901134543 | 15 | 197 | 22.5 | 0.0 | 0.00 | 0.00 | 0.00 | 61 | 1006.7 |
| 20260901134002 | 15 | 214 | 25.7 | 0.0 | 0.00 | 0.00 | 0.00 | 63 | 1006.9 |
| 20260901133521 | 15 | 182 | 29.0 | 0.0 | 0.00 | 0.00 | 0.00 | 62 | 1006.8 |
| 20260901133038 | 15 | 180 | 27.4 | 0.0 | 0.00 | 0.00 | 0.00 | 62 | 1006.8 |
| 20260901132548 | 15 | 178 | 25.7 | 0.0 | 0.00 | 0.00 | 0.00 | 60 | 1006.7 |
| 20260901132017 | 15 | 179 | 20.9 | 0.0 | 0.00 | 0.00 | 0.00 | 61 | 1006.7 |
| 20260901131526 | 16 | 200 | 17.7 | 0.0 | 0.00 | 0.00 | 0.00 | 55 | 1006.6 |
| 20260901131039 | 15 | 190 | 19.3 | 0.0 | 0.00 | 0.00 | 0.00 | 56 | 1006.4 |
| 20260901130546 | 15 | 188 | 22.5 | 0.0 | 0.00 | 0.00 | 0.00 | 57 | 1006.4 |
| 20260901130008 | 15 | 178 | 25.7 | 0.0 | 0.00 | 0.00 | 0.00 | 59 | 1006.7 |
| 20260901125521 | 15 | 161 | 29.0 | 0.0 | 0.00 | 0.00 | 0.00 | 59 | 1006.7 |
| 20260901125027 | 15 | 193 | 27.4 | 0.0 | 0.00 | 0.00 | 0.00 | 59 | 1006.8 |
| 20260901124539 | 15 | 142 | 25.7 | 0.0 | 0.00 | 0.00 | 0.00 | 59 | 1006.9 |
| 20260901124047 | 15 | 170 | 25.7 | 0.0 | 0.00 | 0.00 | 0.00 | 59 | 1006.8 |
| 20260901123559 | 15 | 192 | 27.4 | 0.0 | 0.00 | 0.00 | 0.00 | 59 | 1006.8 |
| 20260901123021 | 15 | 190 | 24.1 | 0.0 | 0.00 | 0.00 | 0.00 | 59 | 1006.8 |
| 20260901122533 | 15 | 187 | 25.7 | 0.0 | 0.00 | 0.00 | 0.00 | 59 | 1006.8 |
| 20260901122051 | 15 | 134 | 29.0 | 0.0 | 0.00 | 0.00 | 0.00 | 59 | 1006.7 |
| 20260901121606 | 15 | 130 | 27.4 | 0.0 | 0.00 | 0.00 | 0.00 | 59 | 1006.7 |
| 20260901121029 | 15 | 163 | 24.1 | 0.0 | 0.00 | 0.00 | 0.00 | 58 | 1006.8 |
| 20260901120551 | 15 | 148 | 25.7 | 0.0 | 0.00 | 0.00 | 0.00 | 58 | 1006.8 |
| 20260901120001 | 15 | 132 | 24.1 | 0.0 | 0.00 | 0.00 | 0.00 | 58 | 1006.6 |
| 20260901115510 | 16 | 162 | 22.5 | 0.0 | 0.00 | 0.00 | 0.00 | 57 | 1006.7 |
| 20260901115023 | 16 | 177 | 20.9 | 0.0 | 0.00 | 0.00 | 0.00 | 57 | 1006.8 |
| 20260901114542 | 16 | 123 | 20.9 | 0.0 | 0.00 | 0.00 | 0.00 | 57 | 1006.7 |
| 20260901114050 | 16 | 184 | 20.9 | 0.0 | 0.00 | 0.00 | 0.00 | 56 | 1006.7 |
| 20260901113502 | 16 | 165 | 22.5 | 0.0 | 0.00 | 0.00 | 0.00 | 56 | 1006.6 |
| 20260901113001 | 16 | 164 | 22.5 | 0.0 | 0.00 | 0.00 | 0.00 | 56 | 1006.6 |
| 20260901112513 | 16 | 169 | 22.5 | 0.0 | 0.00 | 0.00 | 0.00 | 56 | 1006.6 |
| 20260901112020 | 16 | 150 | 22.5 | 0.0 | 0.00 | 0.00 | 0.00 | 56 | 1006.7 |
| 20260901111531 | 16 | 139 | 22.5 | 0.0 | 0.00 | 0.00 | 0.00 | 56 | 1006.8 |
| 20260901111045 | 16 | 148 | 22.5 | 0.0 | 0.00 | 0.00 | 0.00 | 56 | 1006.7 |
| 20260901110505 | 16 | 184 | 24.1 | 0.0 | 0.00 | 0.00 | 0.00 | 55 | 1006.8 |
| 20260901110024 | 16 | 172 | 24.1 | 0.0 | 0.00 | 0.00 | 0.00 | 55 | 1006.8 |
| 20260901105540 | 16 | 180 | 24.1 | 0.0 | 0.00 | 0.00 | 0.00 | 55 | 1006.9 |
| 20260901105051 | 16 | 190 | 22.5 | 0.0 | 0.00 | 0.00 | 0.00 | 55 | 1006.8 |
| 20260901104504 | 16 | 140 | 22.5 | 0.0 | 0.00 | 0.00 | 0.00 | 54 | 1006.9 |
| 20260901104019 | 16 | 154 | 20.9 | 0.0 | 0.00 | 0.00 | 0.00 | 54 | 1006.8 |
| 20260901103538 | 16 | 160 | 20.9 | 0.0 | 0.00 | 0.00 | 0.00 | 53 | 1007.0 |
| 20260901103053 | 16 | 170 | 24.1 | 0.0 | 0.00 | 0.00 | 0.00 | 53 | 1006.9 |
| 20260901102601 | 17 | 135 | 27.4 | 0.0 | 0.00 | 0.00 | 0.00 | 51 | 1007.0 |
| 20260901102020 | 17 | 157 | 29.0 | 0.0 | 0.00 | 0.00 | 0.00 | 51 | 1006.9 |
| 20260901101542 | 17 | 139 | 27.4 | 0.0 | 0.00 | 0.00 | 0.00 | 51 | 1007.1 |
| 20260901101053 | 17 | 140 | 27.4 | 0.0 | 0.00 | 0.00 | 0.00 | 51 | 1007.0 |
| 20260901100502 | 17 | 140 | 25.7 | 0.0 | 0.00 | 0.00 | 0.00 | 51 | 1007.2 |